Location: Asheville, NC
(35.6000°N, 82.5500°W)
Time: 13:03:40
(UTC-04:00)

Iridium 28 - Pass Details

Date: 03 January 2018
Orbit: 771 x 775 km, 86.4° (Epoch: 17 June)

Event Time Altitude Azimuth Distance (km) Brightness Sun altitude
Rises 05:57:10 0° 137° (SE) 3,233 9.7 -20.4°
Reaches altitude 10° 06:00:22 10° 116° (ESE) 2,312 9.1 -19.7°
Maximum altitude 06:03:24 16° 80° (E) 1,937 8.4 -19.1°
Drops below altitude 10° 06:06:27 10° 44° (NE) 2,322 8.4 -18.5°
Sets 06:09:40 0° 23° (NNE) 3,255 8.9 -17.9°
